Location: Prairie Dale
(45.6972°N, 104.5033°W)
Time: 17:53:55
(UTC+00:00)

EO-79 - Pass Details

Date: 06 July 2022
Orbit: 588 x 603 km, 98.0° (Epoch: 17 August)

Event Time Altitude Azimuth Distance (km) Brightness Sun altitude
Rises 08:14:03 0° 20° (NNE) 2,861 ? -19.7°
Reaches altitude 10° 08:16:20 10° 28° (NNE) 1,955 ? -19.6°
Maximum altitude 08:20:20 40° 98° (E) 900 ? -19.4°
Enters shadow 08:21:53 29° 144° (SE) 1,122 ? -19.3°
